This demonstration page uses our WeatherBlox Daily Observations layout. Learn more.

Left ArrowRight Arrow

39.51506, -84.39828

Hourly Observations for January 13, 2021

Temp ( °F °C ) Dew Point ( °F °C ) Humidity (%) Winds ( mph kmh ) Pressure ( in mb ) Visibility ( mi km ) Precip ( " mm )
12:15 am 00:15 Clear 24 -4.2 23 -4.8 96 96 SSW 6 9 30.19 1022 7 11 N/A
12:35 am 00:35 Clear 25 -4 22 -5.4 90 90 SSW 6 9 30.19 1022 7 11 N/A
12:55 am 00:55 Clear 23 -4.8 22 -5.7 94 94 SSW 5 7 30.18 1022 7 11 N/A
1:15 am 01:15 Clear 25 -3.7 24 -4.5 94 94 SSW 6 9 30.18 1022 7 11 N/A
1:35 am 01:35 Clear 26 -3.2 24 -4.5 91 91 SSW 5 7 30.16 1021 7 11 N/A
1:55 am 01:55 Clear with Mist and Fog 23 -5.1 22 -5.8 95 95 SSW 6 9 30.17 1022 7 11 N/A
2:15 am 02:15 Clear with Mist and Fog 23 -4.9 22 -5.7 94 94 SSW 6 9 30.17 1022 7 11 N/A
2:35 am 02:35 Clear 25 -4.1 23 -5.1 93 93 SSW 5 7 30.18 1022 7 11 N/A
2:55 am 02:55 Clear 25 -4 22 -5.3 91 91 SSW 6 9 30.17 1022 7 11 N/A
3:15 am 03:15 Clear 26 -3.5 23 -4.9 90 90 SSW 6 9 30.15 1021 7 11 N/A
3:35 am 03:35 Clear 25 -3.9 23 -4.9 93 93 SSW 3 6 30.16 1021 7 11 N/A
3:55 am 03:55 Clear with Mist and Fog 25 -4.1 23 -4.9 94 94 SSW 5 7 30.16 1021 7 11 N/A
4:15 am 04:15 Clear with Mist and Fog 24 -4.5 23 -4.9 97 97 SSW 5 7 30.15 1021 5 8 N/A
4:35 am 04:35 Clear with Mist and Fog 24 -4.4 23 -4.8 97 97 SW 3 6 30.15 1021 5 8 N/A
4:55 am 04:55 Clear with Mist and Fog 25 -4 24 -4.5 96 96 SSW 5 7 30.15 1021 5 8 N/A
5:15 am 05:15 Clear with Mist and Fog 24 -4.6 23 -5 97 97 SW 3 6 30.15 1021 5 8 N/A
5:35 am 05:35 Clear with Mist and Fog 22 -5.7 21 -6.1 97 97 SSW 5 7 30.14 1021 5 8 N/A
5:55 am 05:55 Clear with Mist and Fog 24 -4.2 24 -4.7 96 96 SW 3 6 30.14 1021 5 8 N/A
6:15 am 06:15 Clear with Mist and Fog 25 -3.8 24 -4.3 96 96 SW 5 7 30.14 1021 5 8 N/A
6:35 am 06:35 Clear with Mist and Fog 24 -4.3 24 -4.7 97 97 SSW 5 7 30.15 1021 5 8 N/A
6:55 am 06:55 Clear with Mist and Fog 23 -4.8 23 -5.1 98 98 SSW 3 6 30.14 1021 5 8 N/A
7:15 am 07:15 Clear with Mist and Fog 23 -5.2 22 -5.5 98 98 SSW 5 7 30.13 1020 4 6 N/A
7:35 am 07:35 Clear with Mist and Fog 24 -4.5 23 -4.8 98 98 SW 5 7 30.13 1020 5 8 N/A
7:55 am 07:55 Clear with Mist and Fog 25 -4 24 -4.3 98 98 SSW 6 9 30.13 1020 4 6 N/A
8:15 am 08:15 Sunny with Mist and Fog 25 -4 24 -4.2 99 99 SW 6 9 30.13 1020 4 6 N/A
8:35 am 08:35 Sunny with Mist and Fog 26 -3.2 26 -3.6 97 97 SSW 6 9 30.12 1020 4 6 N/A
8:55 am 08:55 Sunny with Mist and Fog 29 -1.9 27 -2.7 94 94 SSW 5 7 30.12 1020 4 6 N/A
9:15 am 09:15 Sunny with Mist and Fog 30 -1.3 28 -2.4 92 92 S 8 13 30.11 1020 5 8 N/A
9:35 am 09:35 Sunny with Mist and Fog 31 -0.5 28 -2 90 90 SSW 9 15 30.10 1019 5 8 N/A
9:55 am 09:55 Sunny with Mist and Fog 32 0.1 29 -1.6 88 88 SSW 8 13 30.08 1019 5 8 N/A
10:15 am 10:15 Sunny with Mist and Fog 34 0.9 30 -1 87 87 SSW 12 19 30.08 1019 5 8 N/A
10:35 am 10:35 Hazy 35 1.6 30 -1 83 83 SSW 12 19 30.08 1019 7 11 N/A
10:55 am 10:55 Hazy 36 2.3 30 -0.9 80 80 SSW 12 19 30.08 1019 7 11 N/A
11:15 am 11:15 Sunny 38 3.4 31 -0.7 75 75 SSW 14 22 30.07 1018 7 11 N/A
11:35 am 11:35 Sunny 39 3.7 31 -0.8 73 73 SSW 12 19 30.06 1018 10 16 N/A
11:55 am 11:55 Sunny 40 4.4 30 -0.9 69 69 SSW 13 20 30.03 1017 10 16 N/A
12:15 pm 12:15 Sunny 40 4.5 30 -1.1 67 67 SSW 13 20 30.02 1017 10 16 N/A
12:35 pm 12:35 Sunny 42 5.3 30 -0.9 65 65 SSW 14 22 30.00 1016 10 16 N/A
12:55 pm 12:55 Sunny 42 5.5 31 -0.8 64 64 SSW 13 20 29.98 1015 10 16 N/A
1:15 pm 13:15 Sunny 44 6.5 31 -0.7 60 60 SSW 13 20 29.97 1015 10 16 N/A
1:35 pm 13:35 Sunny 45 7.1 31 -0.6 58 58 SSW 12 19 29.96 1014 10 16 N/A
1:55 pm 13:55 Sunny 46 7.7 31 -0.6 56 56 SSW 15 24 29.94 1014 10 16 N/A
2:15 pm 14:15 Sunny 46 7.7 31 -0.8 55 55 SW 14 22 29.93 1014 10 16 N/A
2:35 pm 14:35 Sunny 47 8.1 31 -0.7 54 54 SSW 15 24 29.92 1013 10 16 N/A
2:55 pm 14:55 Sunny 47 8.5 30 -0.9 52 52 SSW 12 19 29.92 1013 10 16 N/A
3:15 pm 15:15 Sunny 47 8.2 30 -1.2 52 52 SSW 17 28 29.91 1013 10 16 N/A
3:35 pm 15:35 Sunny 47 8.5 30 -1.2 51 51 SSW 14 22 29.90 1013 10 16 N/A
3:55 pm 15:55 Sunny 46 8 30 -1.3 52 52 SSW 14 22 29.90 1013 10 16 N/A
4:15 pm 16:15 Sunny 46 7.6 30 -1.3 54 54 SSW 14 22 29.91 1013 10 16 N/A
4:35 pm 16:35 Sunny 46 7.5 30 -1.2 54 54 SSW 13 20 29.91 1013 10 16 N/A
4:55 pm 16:55 Sunny 45 7.3 30 -1.2 55 55 SSW 10 17 29.91 1013 10 16 N/A
5:15 pm 17:15 Sunny 44 6.9 30 -1.3 56 56 SSW 10 17 29.90 1012 10 16 N/A
5:35 pm 17:35 Sunny 44 6.7 29 -1.4 57 57 SSW 9 15 29.90 1012 10 16 N/A
5:55 pm 17:55 Clear 43 6.1 29 -1.4 59 59 SSW 10 17 29.90 1012 10 16 N/A
6:15 pm 18:15 Clear 43 5.9 30 -1.3 60 60 SSW 12 19 29.90 1013 10 16 N/A
6:35 pm 18:35 Clear 42 5.7 29 -1.4 61 61 SSW 10 17 29.90 1013 10 16 N/A
6:55 pm 18:55 Clear 42 5.3 30 -1.3 63 63 SSW 8 13 29.91 1013 10 16 N/A
7:15 pm 19:15 Clear 41 4.9 30 -1.2 65 65 SSW 8 13 29.90 1013 10 16 N/A
7:35 pm 19:35 Clear 40 4.4 30 -1.2 67 67 SSW 6 9 29.90 1013 10 16 N/A
7:55 pm 19:55 Mostly Cloudy 40 4.3 30 -1.1 68 68 S 5 7 29.90 1013 10 16 N/A
8:15 pm 20:15 Cloudy 41 4.8 30 -1 66 66 S 7 11 29.90 1013 10 16 N/A
8:35 pm 20:35 Cloudy 40 4.7 30 -1.1 66 66 SSW 8 13 29.89 1012 10 16 N/A
8:55 pm 20:55 Cloudy 41 5.1 30 -1.1 65 65 SSW 9 15 29.89 1012 10 16 N/A
9:15 pm 21:15 Partly Cloudy 41 4.9 30 -1.2 65 65 SSW 8 13 29.88 1012 10 16 N/A
9:35 pm 21:35 Cloudy 41 5.2 30 -1.1 64 64 S 9 15 29.88 1012 10 16 N/A
9:55 pm 21:55 Cloudy 41 5.2 30 -1.3 63 63 SSW 10 17 29.88 1012 10 16 N/A
10:15 pm 22:15 Partly Cloudy 41 4.8 30 -1.3 65 65 SSW 10 17 29.88 1012 10 16 N/A
10:35 pm 22:35 Clear 40 4.2 30 -1.3 68 68 SSW 10 17 29.88 1012 10 16 N/A
10:55 pm 22:55 Clear 40 4.4 29 -1.4 66 66 SSW 9 15 29.88 1012 10 16 N/A
11:15 pm 23:15 Clear 39 4 29 -1.5 68 68 SSW 9 15 29.88 1012 10 16 N/A
11:35 pm 23:35 Clear 39 4.1 29 -1.5 67 67 S 10 17 29.87 1012 10 16 N/A
11:55 pm 23:55 Partly Cloudy 40 4.2 29 -1.5 67 67 SSW 9 15 29.87 1012 10 16 N/A

Powered by AerisWeather